Location: Caltech
(34.1382°N, 118.1253°W)
Time: 05:14:15
(UTC-07:00)

Cosmos 1833 - Visible Passes

Search period start: 22 June 2017 00:00
Search period end: 02 July 2017 00:00
Orbit: 827 x 872 km, 70.9° (Epoch: 21 June)

Date Brightness Start Highest point End Pass type
(mag) Time Alt. Az. Time Alt. Az. Time Alt. Az.
22 Jun 6.9 04:11:44 10° N 04:16:10 22° ENE 04:20:34 10° ESE visible
22 Jun 7.8 20:47:20 10° W 20:49:54 13° NW 20:52:30 10° NNW visible
23 Jun 6.9 03:59:00 10° N 04:03:25 22° ENE 04:07:48 10° ESE visible
23 Jun 7.7 20:34:32 10° W 20:37:09 13° NW 20:39:47 10° NNW visible
24 Jun 6.8 03:46:17 10° N 03:50:40 22° ENE 03:55:02 10° ESE visible
25 Jun 6.8 03:33:34 10° N 03:37:56 21° ENE 03:42:16 10° ESE visible
26 Jun 6.7 03:20:50 10° N 03:25:11 21° ENE 03:29:29 10° ESE visible
26 Jun 4.5 05:04:05 10° NNW 05:09:39 49° WSW 05:15:10 10° S visible
27 Jun 6.7 03:08:07 10° N 03:12:26 21° ENE 03:16:43 10° ESE visible
27 Jun 4.5 04:51:20 10° NNW 04:56:56 50° WSW 05:02:27 10° S visible
28 Jun 6.6 02:55:24 10° N 02:59:42 21° ENE 03:03:57 10° ESE visible
28 Jun 4.4 04:38:35 10° NNW 04:44:10 50° WSW 04:49:43 10° S visible
29 Jun 6.6 02:42:41 10° N 02:46:57 21° ENE 02:51:11 10° ESE visible
29 Jun 4.4 04:25:51 10° NNW 04:31:27 51° WSW 04:36:59 10° S visible
30 Jun 6.6 02:29:58 10° N 02:34:12 20° ENE 02:38:25 10° ESE visible
30 Jun 4.4 04:13:07 10° NNW 04:18:43 51° WSW 04:24:15 10° S visible
01 Jul 6.5 02:17:14 10° N 02:21:27 20° ENE 02:25:38 10° ESE visible
01 Jul 4.4 04:00:22 10° NNW 04:05:58 52° WSW 04:10:38 15° S visible
